Jacksonville NAS, FL

9:48 AM EDT on May 28, 2017 (GMT -0400)
Jacksonville Naval Air Station

Weather History for KNIP - August, 2013

Change the Weather History Date:

Monday, August 19, 2013

  Actual Average Record
Temperature  
Mean Temperature 84 °F -  
Max Temperature 91 °F 88 °F 98 °F (2010)
Min Temperature 79 °F 73 °F 73 °F (2004)
Cooling Degree Days 20    
Growing Degree Days 34 (Base 50)    
Moisture  
Dew Point 74 °F    
Average Humidity 74    
Maximum Humidity 90    
Minimum Humidity 53    
Precipitation  
Precipitation 0.00 in - - ()
Sea Level Pressure  
Sea Level Pressure 30.05 in    
Wind  
Wind Speed 9 mph (SE)    
Max Wind Speed 14 mph    
Max Gust Speed -    
Visibility 10 miles    
Events Thunderstorm    
Averages and records for this station are not official NWS values.
T = Trace of Precipitation, MM = Missing Value Source: NWS Daily Summary

Daily Weather History Graph

Daily Weather History Graph

Search for Another Location

Airport or City:

Trip Planner

Search our weather history database for the weather conditions in past years. The results will help you decide how hot, cold, wet, or windy it might be!

Date:

Astronomy

Aug. 19, 2013 Rise Set
Actual Time 6:56 AM EDT 8:03 PM EDT
Civil Twilight 6:31 AM EDT 8:28 PM EDT
Nautical Twilight 6:01 AM EDT 8:58 PM EDT
Astronomical Twilight 5:31 AM EDT 9:28 PM EDT
Moon 6:53 PM EDT (8/19) 5:16 AM EDT (8/19)
Length of Visible Light 13h 57m
Length of Day
13h 07m
Waxing Gibbous, 97% of the Moon is Illuminated
Aug 19
Waxing Gibbous
Aug 20
Full
Aug 28
Last Quarter
Sep 5
New
Sep 12
First Quarter

Hourly Weather History & Observations

Time (EDT) Temp. Heat Index Dew Point Humidity Pressure Visibility Wind Dir Wind Speed Gust Speed Precip Events Conditions
12:53 AM 81.0 °F 87.9 °F 77.0 °F 88% 30.09 in 10.0 mi ESE 9.2 mph - N/A   Mostly Cloudy
1:53 AM 81.0 °F 87.9 °F 77.0 °F 88% 30.08 in 10.0 mi ESE 9.2 mph - N/A   Mostly Cloudy
2:53 AM 80.1 °F 85.8 °F 77.0 °F 90% 30.07 in 10.0 mi SE 11.5 mph - N/A   Scattered Clouds
3:53 AM 80.1 °F 85.8 °F 77.0 °F 90% 30.05 in 10.0 mi ESE 6.9 mph - N/A   Scattered Clouds
4:53 AM 79.0 °F - 75.9 °F 90% 30.05 in 10.0 mi SE 6.9 mph - N/A   Scattered Clouds
5:53 AM 79.0 °F - 75.9 °F 90% 30.04 in 10.0 mi SE 5.8 mph - N/A   Scattered Clouds
6:53 AM 80.1 °F 85.8 °F 77.0 °F 90% 30.05 in 10.0 mi SE 10.4 mph - N/A   Scattered Clouds
7:53 AM 81.0 °F 87.9 °F 77.0 °F 88% 30.06 in 10.0 mi SE 6.9 mph - N/A   Partly Cloudy
8:53 AM 82.0 °F 90.2 °F 77.0 °F 85% 30.07 in 10.0 mi SSE 6.9 mph - N/A   Partly Cloudy
9:53 AM 84.0 °F 91.9 °F 75.0 °F 74% 30.08 in 10.0 mi South 8.1 mph - N/A   Partly Cloudy
10:53 AM 84.0 °F 91.2 °F 73.9 °F 72% 30.09 in 10.0 mi South 9.2 mph - N/A   Partly Cloudy
11:53 AM 84.9 °F 91.4 °F 73.0 °F 67% 30.09 in 10.0 mi East 11.5 mph - 0.00 in   Scattered Clouds
12:44 PM 86.0 °F 90.7 °F 70.0 °F 59% 30.08 in 10.0 mi SSE 10.4 mph - N/A Thunderstorm Thunderstorm
12:53 PM 86.0 °F 90.1 °F 69.1 °F 57% 30.07 in 10.0 mi ESE 10.4 mph - N/A Thunderstorm Thunderstorm
1:19 PM 84.9 °F 92.1 °F 73.9 °F 69% 30.08 in 10.0 mi East 9.2 mph - N/A   Scattered Clouds
1:53 PM 86.0 °F 93.0 °F 73.0 °F 65% 30.06 in 10.0 mi East 9.2 mph - N/A   Scattered Clouds
2:53 PM 89.1 °F 94.1 °F 70.0 °F 53% 30.03 in 10.0 mi SE 8.1 mph - N/A   Scattered Clouds
3:53 PM 90.0 °F 97.9 °F 73.0 °F 57% 30.00 in 10.0 mi East 12.7 mph - N/A   Scattered Clouds
4:53 PM 90.0 °F 96.9 °F 72.0 °F 55% 29.99 in 10.0 mi ESE 10.4 mph - N/A   Scattered Clouds
5:53 PM 89.1 °F 96.0 °F 72.0 °F 57% 29.98 in 10.0 mi South 13.8 mph - N/A   Scattered Clouds
6:53 PM 88.0 °F 97.5 °F 75.0 °F 65% 29.99 in 10.0 mi SE 11.5 mph - N/A   Scattered Clouds
7:53 PM 84.9 °F 93.3 °F 75.0 °F 72% 30.01 in 10.0 mi ESE 10.4 mph - N/A   Scattered Clouds
8:53 PM 84.0 °F 92.6 °F 75.9 °F 76% 30.03 in 10.0 mi ESE 10.4 mph - N/A   Scattered Clouds
9:53 PM 82.9 °F 90.8 °F 75.9 °F 79% 30.05 in 10.0 mi SSE 6.9 mph - N/A   Scattered Clouds
10:53 PM 82.9 °F 90.8 °F 75.9 °F 79% 30.07 in 10.0 mi South 6.9 mph - N/A   Scattered Clouds
11:30 PM 82.0 °F 88.6 °F 75.0 °F 79% 30.08 in 10.0 mi WSW 8.1 mph - N/A   Mostly Cloudy
11:53 PM 81.0 °F 85.8 °F 73.0 °F 77% 30.08 in 10.0 mi WNW 5.8 mph - N/A   Mostly Cloudy